Location: Unspecified
(49.2170°N, 0.0000°E)
Time: 17:38:55
(UTC+00:00)

Envisat - Pass Details

Date: 02 December 2020
Orbit: 764 x 766 km, 98.1° (Epoch: 20 January)

Event Time Altitude Azimuth Distance (km) Brightness Sun altitude
Rises 17:38:30 0° 188° (S) 3,221 6.6 -14.8°
Reaches altitude 10° 17:40:58 10° 197° (SSW) 2,299 5.9 -15.2°
Maximum altitude 17:45:38 36° 264° (W) 1,197 4.7 -15.9°
Drops below altitude 10° 17:50:20 10° 331° (NNW) 2,316 5.7 -16.6°
Sets 17:52:50 0° 340° (NNW) 3,247 6.3 -17.0°
